• In Romania
  • List of Countries
  • For 7 days
  • Water Temperature
  • Satellite Maps
  • Weather Map
  • Weather Widgets
  • user-avatar
    Login

    Hourly Weather Apolevo

    Today, 22 September, Saturday

    Time Temperature Precipitation Wind Pressure Humidity
    00:00 +16°C° 0 mm 2 mps 744 mmHg 94%
    01:00 +16°C° 0 mm 3 mps 744 mmHg 95%
    02:00 +16°C° 0 mm 3 mps 744 mmHg 95%
    03:00 +16°C° 0 mm 3 mps 744 mmHg 95%
    04:00 +16°C° 0 mm 3 mps 743 mmHg 94%
    05:00 +14°C° 0 mm 3 mps 743 mmHg 93%
    06:00 +15°C° 0 mm 4 mps 743 mmHg 88%
    07:00 +18°C° 0 mm 4 mps 742 mmHg 82%
    08:00 +19°C° 0 mm 5 mps 742 mmHg 76%
    09:00 +20°C° 0 mm 5 mps 742 mmHg 70%
    10:00 +22°C° 0 mm 6 mps 741 mmHg 63%
    11:00 +23°C° 0 mm 6 mps 741 mmHg 56%
    12:00 +24°C° 0 mm 6 mps 741 mmHg 55%
    13:00 +24°C° 0 mm 6 mps 740 mmHg 53%
    14:00 +24°C° 0 mm 6 mps 739 mmHg 51%
    15:00 +23°C° 0 mm 5 mps 739 mmHg 56%
    16:00 +22°C° 0 mm 5 mps 739 mmHg 61%
    17:00 +21°C° 0 mm 4 mps 739 mmHg 65%
    18:00 +19°C° 0.4 mm 4 mps 739 mmHg 72%
    19:00 +17°C° 0.4 mm 4 mps 739 mmHg 79%
    20:00 +14°C° 0.4 mm 4 mps 739 mmHg 85%
    21:00 +13°C° 0.1 mm 4 mps 739 mmHg 86%
    22:00 +12°C° 0.1 mm 3 mps 739 mmHg 87%
    23:00 +11°C° 0.1 mm 3 mps 739 mmHg 88%

    Tomorrow, 23 September, Sunday

    Time Temperature Precipitation Wind Pressure Humidity
    00:00 +11°C° 0.2 mm 3 mps 739 mmHg 88%
    01:00 +10°C° 0.2 mm 3 mps 739 mmHg 89%
    02:00 +10°C° 0.2 mm 3 mps 739 mmHg 89%
    03:00 +10°C° 0.8 mm 3 mps 739 mmHg 91%
    04:00 +9°C° 0.8 mm 3 mps 739 mmHg 92%
    05:00 +9°C° 0.8 mm 3 mps 739 mmHg 94%
    06:00 +9°C° 1 mm 3 mps 739 mmHg 94%
    07:00 +9°C° 1 mm 3 mps 739 mmHg 93%
    08:00 +10°C° 1 mm 3 mps 739 mmHg 93%
    09:00 +11°C° 0.2 mm 3 mps 739 mmHg 88%
    10:00 +11°C° 0.2 mm 3 mps 739 mmHg 83%
    11:00 +12°C° 0.2 mm 4 mps 738 mmHg 78%
    12:00 +13°C° 0.1 mm 4 mps 738 mmHg 72%
    13:00 +14°C° 0.1 mm 4 mps 738 mmHg 66%
    14:00 +15°C° 0.1 mm 4 mps 738 mmHg 60%
    15:00 +14°C° 0.1 mm 4 mps 738 mmHg 65%
    16:00 +13°C° 0.1 mm 3 mps 738 mmHg 69%
    17:00 +12°C° 0.1 mm 3 mps 737 mmHg 74%
    18:00 +11°C° 0.1 mm 3 mps 738 mmHg 77%
    19:00 +10°C° 0.1 mm 3 mps 738 mmHg 80%
    20:00 +9°C° 0.1 mm 3 mps 738 mmHg 83%
    21:00 +9°C° 0 mm 3 mps 738 mmHg 84%
    22:00 +8°C° 0 mm 3 mps 738 mmHg 85%
    23:00 +8°C° 0 mm 3 mps 738 mmHg 86%

    Day after tomorrow, 24 September, Monday

    Time Temperature Precipitation Wind Pressure Humidity
    00:00 +7°C° 0 mm 3 mps 738 mmHg 88%
    01:00 +7°C° 0 mm 3 mps 738 mmHg 89%
    02:00 +7°C° 0 mm 3 mps 738 mmHg 91%
    03:00 +5°C° 0 mm 3 mps 738 mmHg 92%
    04:00 +5°C° 0 mm 3 mps 738 mmHg 93%
    05:00 +5°C° 0 mm 3 mps 738 mmHg 94%
    06:00 +7°C° 0 mm 3 mps 738 mmHg 90%
    07:00 +8°C° 0 mm 3 mps 738 mmHg 87%
    08:00 +9°C° 0 mm 3 mps 738 mmHg 83%
    09:00 +10°C° 0 mm 3 mps 737 mmHg 79%
    10:00 +11°C° 0 mm 3 mps 737 mmHg 76%
    11:00 +12°C° 0 mm 3 mps 736 mmHg 72%
    12:00 +11°C° 1.5 mm 4 mps 735 mmHg 79%
    13:00 +10°C° 1.5 mm 4 mps 735 mmHg 85%
    14:00 +8°C° 1.5 mm 4 mps 734 mmHg 92%
    15:00 +8°C° 2.3 mm 5 mps 733 mmHg 92%
    16:00 +8°C° 2.3 mm 5 mps 732 mmHg 92%
    17:00 +7°C° 2.3 mm 6 mps 730 mmHg 93%
    18:00 +7°C° 3 mm 6 mps 729 mmHg 93%
    19:00 +7°C° 3 mm 6 mps 727 mmHg 94%
    20:00 +7°C° 3 mm 6 mps 726 mmHg 94%
    21:00 +7°C° 2.7 mm 6 mps 724 mmHg 94%
    22:00 +8°C° 2.7 mm 5 mps 723 mmHg 94%
    23:00 +8°C° 2.7 mm 5 mps 722 mmHg 94%

    25 September, Tuesday

    Time Temperature Precipitation Wind Pressure Humidity
    00:00 +8°C° 1.3 mm 5 mps 721 mmHg 94%
    01:00 +7°C° 1.3 mm 4 mps 721 mmHg 94%
    02:00 +7°C° 1.3 mm 4 mps 720 mmHg 94%
    03:00 +7°C° 0.9 mm 5 mps 721 mmHg 93%
    04:00 +5°C° 0.9 mm 6 mps 721 mmHg 92%
    05:00 +5°C° 0.9 mm 7 mps 721 mmHg 92%
    06:00 +5°C° 0.8 mm 8 mps 722 mmHg 90%
    07:00 +5°C° 0.8 mm 8 mps 723 mmHg 89%
    08:00 +5°C° 0.8 mm 9 mps 724 mmHg 88%
    09:00 +5°C° 0.9 mm 9 mps 725 mmHg 87%
    10:00 +3°C° 0.9 mm 9 mps 726 mmHg 86%
    11:00 +3°C° 0.9 mm 10 mps 727 mmHg 86%
    12:00 +3°C° 0.8 mm 9 mps 729 mmHg 85%
    13:00 +3°C° 0.8 mm 9 mps 730 mmHg 84%
    14:00 +3°C° 0.8 mm 9 mps 731 mmHg 83%
    15:00 +3°C° 0.3 mm 9 mps 732 mmHg 82%
    16:00 +4°C° 0.3 mm 8 mps 733 mmHg 81%
    17:00 +4°C° 0.3 mm 8 mps 734 mmHg 80%
    18:00 +4°C° 0.1 mm 8 mps 734 mmHg 79%
    19:00 +3°C° 0.1 mm 7 mps 735 mmHg 78%
    20:00 +3°C° 0.1 mm 7 mps 736 mmHg 77%
    21:00 +2°C° 0 mm 6 mps 736 mmHg 77%
    22:00 +2°C° 0 mm 6 mps 736 mmHg 76%
    23:00 +1°C° 0 mm 6 mps 737 mmHg 76%

    26 September, Wednesday

    Time Temperature Precipitation Wind Pressure Humidity
    00:00 +1°C° 0 mm 6 mps 737 mmHg 77%
    01:00 +1°C° 0 mm 5 mps 737 mmHg 77%
    02:00 0°C° 0 mm 5 mps 738 mmHg 78%
    03:00 0°C° 0 mm 5 mps 738 mmHg 79%
    04:00 0°C° 0 mm 4 mps 739 mmHg 80%
    05:00 -1°C° 0 mm 4 mps 739 mmHg 81%
    06:00 0°C° 0 mm 4 mps 740 mmHg 78%
    07:00 +1°C° 0 mm 4 mps 740 mmHg 75%
    08:00 +3°C° 0 mm 4 mps 741 mmHg 72%
    09:00 +4°C° 0 mm 4 mps 741 mmHg 66%
    10:00 +5°C° 0 mm 4 mps 742 mmHg 60%
    11:00 +7°C° 0 mm 4 mps 742 mmHg 54%
    12:00 +7°C° 0 mm 4 mps 743 mmHg 53%
    13:00 +7°C° 0 mm 4 mps 743 mmHg 52%
    14:00 +8°C° 0 mm 4 mps 744 mmHg 52%
    15:00 +8°C° 0 mm 3 mps 744 mmHg 56%
    16:00 +7°C° 0 mm 3 mps 745 mmHg 60%
    17:00 +6°C° 0 mm 2 mps 745 mmHg 64%
    18:00 +5°C° 0 mm 2 mps 746 mmHg 67%
    19:00 +5°C° 0 mm 2 mps 746 mmHg 70%
    20:00 +4°C° 0 mm 2 mps 747 mmHg 72%
    21:00 +4°C° 0 mm 2 mps 747 mmHg 74%
    22:00 +3°C° 0 mm 2 mps 747 mmHg 76%
    23:00 +3°C° 0 mm 2 mps 747 mmHg 78%

    27 September, Thursday

    Time Temperature Precipitation Wind Pressure Humidity
    00:00 +2°C° 0 mm 2 mps 747 mmHg 78%
    01:00 +2°C° 0 mm 2 mps 747 mmHg 78%
    02:00 +2°C° 0 mm 2 mps 747 mmHg 78%
    03:00 +1°C° 0 mm 3 mps 747 mmHg 76%
    04:00 +1°C° 0 mm 3 mps 747 mmHg 74%
    05:00 +2°C° 0 mm 3 mps 746 mmHg 72%
    06:00 +3°C° 0 mm 4 mps 746 mmHg 73%
    07:00 +3°C° 0 mm 5 mps 745 mmHg 73%
    08:00 +4°C° 0 mm 6 mps 745 mmHg 74%
    09:00 +4°C° 0.2 mm 6 mps 744 mmHg 74%
    10:00 +5°C° 0.2 mm 7 mps 743 mmHg 74%
    11:00 +6°C° 0.2 mm 7 mps 743 mmHg 74%
    12:00 +6°C° 0.8 mm 8 mps 742 mmHg 79%
    13:00 +5°C° 0.8 mm 8 mps 741 mmHg 83%
    14:00 +5°C° 0.8 mm 8 mps 740 mmHg 87%
    15:00 +6°C° 0.7 mm 8 mps 740 mmHg 88%
    16:00 +6°C° 0.7 mm 8 mps 739 mmHg 89%
    17:00 +6°C° 0.7 mm 8 mps 739 mmHg 89%
    18:00 +7°C° 0.4 mm 8 mps 738 mmHg 90%
    19:00 +7°C° 0.4 mm 8 mps 738 mmHg 90%
    20:00 +8°C° 0.4 mm 7 mps 738 mmHg 90%
    21:00 +8°C° 0.1 mm 7 mps 737 mmHg 90%
    22:00 +8°C° 0.1 mm 7 mps 737 mmHg 90%
    23:00 +8°C° 0.1 mm 7 mps 737 mmHg 90%
    Show more